Home > Time Zones > World Clock > Weather > U.S.A. > Hilo > Past weeks

Flag for U.S.A. Weather past 2 weeks in Hilo, Hawaii, U.S.A.

Now
70 °F

Passing clouds.


Feels Like: 71 °F
Forecast: 67 / 78 °F
Wind: 5 mph from Southwest

Location: Hilo International Airport

Current Time: May 23, 2015 at 2:54:29 AM

Latest Report: May 23, 2015 at 1:53 AM


Visibility: 10 mi

Pressure: 29.99 "Hg

Humidity: 79%

Dew point: 63 °F

Location of HiloLocation

Historic Weather in Hilo — Graph

°F

Hilo temperature yesterday

Maximum temperature yesterday: 83 °F (at 10:53 AM)
Minimum temperature yesterday: 65 °F (at 3:53 AM)
Average temperature yesterday: 74 °F

Past Weeks' High & Low Weather Summary

 TemperatureHumidityPressure
High83 °F (May 22, 10:53 AM)100% (May 13, 5:19 AM)30.19 "Hg (May 13, 5:19 AM)
Low64 °F (May 15, 3:53 AM)53% (May 22, 10:53 AM)29.92 "Hg (May 22, 2:53 AM)
Average72 °F81%30.07 "Hg
* Reported May 8 1:01 AM — May 23 1:53 AM, Hilo, Weather by CustomWeather, © 2015

Note: Actual official high and low records may vary slightly from our data, if they occured in-between our weather recording intervals... More about our weather records

Advertising

Hilo weather history for previous 24 hours

 ConditionsComfort  
Time TempWeatherWind HumidityBarometerVisibility
1:53 AM
Sat, May 23
70 °FPassing clouds.5 mph79%29.99 "Hg10 mi
12:53 AM71 °FPassing clouds.5 mph78%30.00 "Hg10 mi
11:53 PM
Fri, May 22
72 °FOvercast.3 mph76%30.01 "Hg10 mi
10:53 PM73 °FOvercast.No wind76%30.02 "Hg10 mi
9:53 PM74 °FMostly cloudy.5 mph74%30.02 "Hg10 mi
8:53 PM75 °FOvercast.6 mph76%30.01 "Hg10 mi
7:53 PM76 °FOvercast.3 mph74%29.99 "Hg10 mi
6:53 PM76 °FPassing clouds.6 mph72%29.97 "Hg10 mi
5:53 PM78 °FMostly cloudy.8 mph66%29.96 "Hg10 mi
4:53 PM79 °FPartly sunny.12 mph62%29.94 "Hg10 mi
3:53 PM78 °FMostly cloudy.No wind66%29.93 "Hg9 mi
2:53 PM81 °FBroken clouds.5 mph54%29.93 "Hg10 mi
1:53 PM81 °FOvercast.8 mph62%29.94 "Hg10 mi
12:53 PM80 °FPartly sunny.8 mph60%29.95 "Hg10 mi
11:53 AM81 °FPassing clouds.8 mph58%29.96 "Hg10 mi
10:53 AM83 °FScattered clouds.6 mph53%29.98 "Hg10 mi
9:53 AM80 °FScattered clouds.5 mph62%29.98 "Hg10 mi
8:53 AM78 °FScattered clouds.No wind66%29.98 "Hg10 mi
7:53 AM74 °FScattered clouds.No wind67%29.98 "Hg10 mi
6:53 AM67 °FScattered clouds.3 mph85%29.97 "Hg10 mi
5:53 AM65 °FScattered clouds.5 mph87%29.95 "Hg10 mi
4:53 AM65 °FClear.5 mph87%29.93 "Hg10 mi
3:53 AM65 °FClear.5 mph91%29.92 "Hg10 mi
2:53 AM66 °FClear.3 mph90%29.92 "Hg9 mi
Weather by CustomWeather, © 2015

See weather overviewHow to use our weather pages